Starlink 31512

operational
NORAD ID: 59500 Int'l Des: 2024-071 Owner: SPXS Country: US Constellation: starlink
LEOCIRCULAR

Starlink 31512について

説明を読み込み中...

リアルタイム位置

3D地球を読み込み中...

次回通過

高度履歴

Altitude vs Time

uPlot chart will show altitude changes over time

軌道要素

1 59500U 24071S 25306.26735196 .00002964 00000-0 11722-3 0 9995
2 59500 43.0020 299.2120 0000420 296.8060 63.2748 15.27572130 89170
Epoch: Nov 2, 2025 • Age: 34 hours

現在のステータス

高度 483.9 km
速度 7.63 km/s
衛星直下点 29.97°N, 150.94°E
打ち上げ日 Apr 13, 2024
運用期間 1.5 years
タイプ internet

技術仕様

分類 Payload
質量 730.00 kg
乾燥質量 700.00 kg
総質量 730.00 kg
長さ 0.30 m
直径 4.10 m
スパン 29.00 m
形状 Box + pan
製造者 SPXS
バスタイプ Starlink V2M
フェーズステータス In Orbit
所有者/国 SPXS/US

大規模コンステレーション

Loading constellations...